Location: Bieujac
(44.5398°N, 0.1549°W)
Time: 19:51:10
(UTC+00:00)

Cosmos 1937 Rocket - Pass Details

Date: 17 November 2019
Orbit: 747 x 780 km, 74.0° (Epoch: 11 December)

Event Time Altitude Azimuth Distance (km) Brightness Sun altitude
Exits shadow 05:27:10 - 221° (SW) 2,725 6.1 -16.3°
Reaches altitude 10° 05:28:25 10° 226° (SW) 2,264 5.6 -16.1°
Maximum altitude 05:33:17 43° 297° (WNW) 1,052 3.8 -15.3°
Drops below altitude 10° 05:38:10 10° 9° (N) 2,273 5.9 -14.4°
Sets 05:40:40 0° 16° (NNE) 3,202 6.8 -14.0°
